THORAD DELTA 1 DEB, 9985

Orbit data source: Space-Track

THORAD DELTA 1 DEB, 9985 is space debris in SSO originally from a launch on Fri, 15 Nov 1974 UTC launched from the Air Force Western Test Range (AFWTR). Debris objects in space refer to the collection of defunct objects orbiting the Earth. Examples of debris include non-operational satellites, rocket bodies, and fragments generated from explosions, collisions, or faulty payload assembly.

Loading next visibility...
Identifier
9985, 1974-089EC
Orbit
SSO
Country
Flag of USUS
Related business
Manufacturer
Unknown
Mission
Spacecraft
Bus & Motor
Unknown
Mass
Unknown
Launch date (UTC)
1974-11-15 (52 years ago)
Launch vehicle
Unknown
Launch site
Air Force Western Test Range (AFWTR)
Object type
Payload
Rocket body
Debris
Shape & HBR
Unknown shape, 0.1 m
Radar Cross Section
Medium (>0.1 m² and <1 m²)

Expand to show TLE details & history
Last TLE update: 1 day ago

TLE from 1 day ago
0 THORAD DELTA 1 DEB
1 09985U 74089EC  26206.86501888  .00000018  00000-0  42560-3 0  9998
2 09985 101.9934 171.3800 0048861 315.1041  74.2272 12.49101657357311
Epoch: 2026-07-25T20:45Z
TLE epoch observation values (Epoch: 2026-07-25T20:45:37.631Z)
Latitude
29.20151°
Longitude
-90.38334°
Altitude
1,461.334 km
Speed
7.139 km/s
True Right ascension
10h 58m 22s
True Declination
29° 04' 06"
Sunlit
Object was in daylight at epoch
Visualization orbit readout
Latitude
Unknown
Longitude
Unknown
Altitude
Unknown
Speed
Unknown
Apparent Right ascension
Unknown
Apparent Declination
Unknown
Sunlit
N/A
Visualization observer readout
Local Sidereal Time
15:06:12
Azimuth
Unknown
Elevation
Unknown
Doppler factor
Unknown
Orbital elements
Apogee altitude
1,504.143 km
Perigee altitude
1,427.491 km
Semi-major axis
7,843.954 km
Eccentricity
0.00489
Inclination
101.9934°
RAAN
171.38°
Arg. of periapsis
315.1041°
True anomaly
74.76691°
Mean anomaly
74.2272°
Eccentric anomaly
74.49697°
Mean motion
3.12421 °/min
Orbital period
115.23 mins
BSTAR
0.0004256
Loading maneuver chart data...
Computing Atmospheric mass density...

Documentation

Showing up to 5 results
|